Vorticity
6 4 6 12 6 9 5 10 10 21 26 8 -7 3 14 3 7 8 9 9 8 7 6 6 6 5 5 5 5 5 5 5 5 5 5 9 5 5 4 4 5 4 4 4
10 2 8 16 6 3 2 6 -6 2 -11 38 -9 -3 7 -18 0 6 8 6 6 7 7 6 6 7 6 6 5 5 6 6 7 6 6 8 6 4 5 4 4 4 3 2
19 22 6 8 10 12 6 0 7 -1 -3 29 7 4 13 -5 15 8 6 6 6 4 5 5 5 6 6 7 7 7 8 7 8 7 7 8 6 5 4 4 4 3 3 4
8 25 11 7 6 11 8 16 -1 5 17 -9 9 -3 -12 1 1 -1 11 6 7 5 5 5 5 5 5 4 5 9 7 6 7 6 7 6 5 4 4 5 4 4 5 10
15 12 20 11 6 10 8 15 -21 -2 4 21 13 -9 8 -4 15 -7 8 10 8 8 5 4 3 3 2 2 2 2 5 6 6 6 6 4 3 3 3 2 4 6 17 10
6 9 11 15 13 10 11 0 4 4 3 1 -4 4 22 0 32 -5 -5 9 9 2 3 7 10 8 7 5 5 11 12 7 4 5 5 4 3 3 3 5 10 18 10 9
12 7 15 15 15 14 4 13 5 19 0 4 6 5 1 8 12 4 28 -5 -16 14 -3 3 15 17 13 14 12 10 5 3 5 8 7 5 4 2 5 9 19 7 9 10
0 -2 6 12 13 14 24 3 9 1 3 10 4 6 0 18 5 33 15 45 -6 -1 -6 11 11 11 15 14 9 16 20 13 9 7 9 6 4 4 5 13 7 15 16 15
8 9 1 3 14 15 22 -1 9 3 8 -1 7 9 23 2 1 11 -22 12 -5 -2 5 -1 9 13 9 10 10 5 14 10 14 17 9 8 3 5 14 10 17 6 21 17
6 6 12 16 9 1 6 30 19 5 1 4 3 -3 14 5 32 8 15 18 10 2 4 0 16 7 10 -2 3 6 9 10 14 15 21 7 3 11 13 6 3 14 3 6
9 9 -2 13 4 15 10 8 -1 19 11 0 1 7 7 5 5 7 -0 -4 -7 2 -8 1 14 16 12 -2 -1 10 6 3 12 17 19 19 15 11 5 2 7 -1 0 5
13 15 -5 -7 15 15 9 12 29 -8 2 9 4 -2 3 15 6 8 11 13 20 29 27 3 5 3 3 7 1 13 -0 2 7 16 12 16 10 5 1 9 -1 -4 12 10
16 7 11 -0 -13 16 9 15 15 40 13 15 4 4 0 -30 15 -4 21 42 48 30 2 -3 4 5 18 8 8 7 6 1 9 8 16 12 8 3 8 2 3 14 4 6
12 18 12 -1 19 3 15 9 16 4 27 -0 8 9 7 -11 8 35 -0 26 3 1 2 18 14 6 4 -16 1 5 6 4 10 7 4 3 8 6 10 9 8 5 4 1
7 4 6 22 -7 13 -3 17 9 11 20 19 13 2 21 -13 -17 32 -39 11 20 -5 -13 1 1 -19 -9 1 6 8 2 0 10 12 7 9 0 1 15 6 4 2 3 2
9 7 6 -1 35 -0 6 12 -0 16 13 24 8 19 -7 29 -18 -7 -1 25 -3 -1 22 -8 -3 14 11 6 15 15 5 -1 4 11 12 8 -2 2 13 0 8 -1 -0 -2
16 25 1 -9 5 14 5 -8 20 9 12 8 44 5 5 10 17 3 3 -23 8 11 28 33 13 6 2 4 14 13 5 3 3 -2 17 9 11 9 7 10 7 4 3 -0
9 33 22 -12 9 11 5 19 2 4 8 10 10 45 28 15 -3 7 9 -17 7 -6 4 6 -14 14 14 7 9 10 3 1 1 3 6 10 7 9 2 -1 2 4 -1 0
11 12 30 2 -7 28 -5 -0 16 16 22 -8 1 6 4 16 66 -1 5 1 10 -12 1 17 13 -44 10 6 13 1 5 0 1 1 3 12 1 10 0 -8 -3 2 0 -0
10 4 35 6 0 1 22 12 11 10 2 6 9 16 -4 -0 5 2 66 4 -1 10 4 -10 -5 -14 -44 26 16 6 3 2 2 7 5 7 4 10 5 7 4 -3 -3 4
-0 6 4 9 18 7 6 9 11 12 13 -1 8 2 16 11 -5 4 -7 17 92 -11 17 4 -14 -2 34 12 15 6 6 5 8 -1 4 5 9 4 1 3 1 9 13 -6
8 -0 20 3 -2 26 -3 1 -11 12 -1 -1 8 10 10 11 7 27 28 -11 3 31 51 31 12 24 2 7 13 7 10 11 5 2 7 3 1 1 2 8 -1 4 1 6
9 -0 -28 6 4 -8 6 59 27 -6 16 -1 18 27 9 15 18 20 12 18 8 13 -6 19 0 13 8 13 10 8 4 9 4 4 4 4 2 5 10 2 17 -12 8 7
20 11 -4 -9 19 -4 12 12 -8 -5 13 9 3 -4 10 23 4 11 20 15 5 30 3 4 23 5 19 14 11 9 5 9 4 7 3 -2 8 1 -3 -1 8 0 7 -4
38 -6 25 4 5 9 17 7 1 -6 4 -1 9 12 22 7 22 13 8 13 16 33 18 2 -4 23 27 8 8 4 3 7 3 2 1 4 4 3 4 0 6 4 4 4
-2 -0 4 15 3 6 2 4 7 21 15 9 -31 7 17 -7 30 26 5 8 18 19 32 32 24 15 20 10 10 8 7 7 3 1 4 7 12 6 9 4 7 1 7 3
Height
5864 5865 5868 5873 5877 5882 5885 5895 5897 5900 5894 5900 5898 5896 5896 5895 5896 5901 5902 5903 5904 5905 5906 5908 5909 5910 5912 5914 5915 5917 5919 5919 5921 5923 5924 5925 5926 5927 5928 5928 5928 5929 5928 5928
5858 5859 5869 5872 5875 5879 5881 5887 5897 5901 5895 5896 5900 5894 5898 5893 5901 5901 5901 5902 5903 5904 5906 5907 5909 5910 5911 5913 5914 5916 5917 5918 5920 5921 5923 5924 5925 5926 5926 5927 5927 5927 5927 5927
5853 5860 5862 5864 5869 5873 5878 5881 5890 5896 5894 5894 5899 5899 5900 5897 5898 5900 5900 5901 5902 5902 5903 5905 5906 5908 5910 5912 5913 5914 5916 5917 5918 5920 5921 5922 5924 5924 5925 5925 5926 5926 5926 5924
5849 5852 5855 5857 5861 5869 5873 5881 5884 5889 5893 5889 5894 5899 5897 5896 5895 5898 5900 5900 5901 5902 5903 5904 5905 5907 5908 5910 5912 5913 5914 5915 5916 5918 5919 5920 5921 5922 5922 5923 5924 5923 5922 5921
5845 5846 5849 5851 5855 5863 5869 5877 5880 5885 5888 5888 5885 5888 5890 5896 5893 5891 5896 5899 5900 5901 5902 5903 5904 5905 5906 5908 5910 5911 5911 5913 5914 5915 5916 5917 5918 5919 5919 5919 5920 5920 5920 5919
5836 5840 5842 5847 5850 5855 5865 5869 5875 5879 5881 5878 5882 5883 5887 5885 5889 5890 5890 5895 5897 5899 5901 5902 5902 5902 5903 5904 5907 5908 5909 5909 5910 5911 5913 5914 5914 5915 5915 5915 5916 5916 5917 5916
5832 5833 5837 5840 5842 5846 5853 5860 5865 5869 5869 5872 5880 5875 5880 5883 5885 5888 5887 5885 5892 5896 5897 5898 5899 5900 5900 5901 5902 5904 5905 5906 5906 5908 5909 5909 5910 5911 5911 5912 5912 5913 5914 5913
5821 5824 5828 5832 5836 5840 5843 5850 5852 5858 5864 5871 5876 5874 5875 5881 5879 5877 5877 5879 5884 5888 5892 5894 5895 5896 5897 5898 5899 5899 5900 5900 5902 5903 5904 5905 5905 5907 5908 5908 5909 5911 5910 5910
5812 5817 5823 5824 5829 5833 5837 5837 5849 5856 5862 5865 5868 5872 5877 5876 5878 5869 5875 5881 5887 5880 5885 5891 5892 5893 5893 5895 5896 5896 5896 5897 5897 5898 5899 5901 5902 5903 5904 5905 5907 5908 5908 5908
5805 5808 5812 5817 5820 5824 5826 5837 5838 5840 5847 5850 5860 5865 5868 5872 5867 5862 5870 5877 5885 5886 5882 5883 5887 5889 5891 5892 5893 5893 5893 5893 5893 5893 5894 5897 5898 5900 5902 5903 5905 5906 5906 5908
5796 5797 5805 5809 5804 5815 5817 5819 5824 5836 5839 5842 5850 5854 5866 5870 5867 5864 5870 5872 5875 5883 5883 5879 5883 5885 5887 5888 5889 5890 5890 5890 5890 5889 5890 5892 5895 5897 5900 5902 5903 5903 5904 5902
5780 5787 5789 5796 5801 5805 5808 5812 5817 5817 5826 5832 5840 5846 5862 5866 5866 5864 5864 5866 5870 5874 5879 5879 5876 5881 5884 5885 5886 5887 5887 5887 5886 5887 5888 5890 5892 5895 5897 5899 5899 5899 5899 5898
5769 5770 5779 5784 5791 5794 5793 5801 5806 5811 5820 5822 5829 5833 5850 5851 5854 5849 5855 5858 5864 5867 5871 5873 5871 5870 5876 5880 5882 5883 5883 5883 5883 5884 5886 5888 5891 5893 5894 5895 5896 5895 5894 5893
5758 5761 5761 5767 5776 5789 5790 5792 5796 5802 5805 5811 5817 5829 5839 5846 5844 5847 5846 5853 5859 5858 5862 5865 5865 5865 5869 5872 5876 5878 5879 5879 5879 5880 5883 5885 5888 5890 5891 5891 5890 5890 5889 5887
5741 5742 5750 5758 5769 5778 5782 5787 5789 5788 5794 5802 5809 5819 5827 5835 5840 5838 5844 5844 5848 5853 5856 5857 5861 5864 5859 5863 5869 5871 5873 5874 5875 5876 5879 5882 5883 5885 5885 5885 5886 5885 5883 5882
5725 5728 5738 5747 5756 5762 5771 5778 5781 5780 5783 5788 5798 5807 5819 5825 5833 5834 5828 5838 5838 5846 5850 5848 5852 5857 5859 5857 5861 5865 5866 5868 5869 5871 5874 5877 5878 5880 5879 5879 5879 5879 5878 5877
5707 5717 5726 5731 5743 5754 5757 5759 5771 5777 5778 5781 5786 5791 5804 5810 5817 5822 5828 5828 5830 5832 5837 5843 5842 5848 5851 5852 5853 5857 5861 5862 5864 5866 5868 5870 5872 5873 5873 5873 5873 5873 5872 5873
5691 5701 5714 5722 5734 5736 5740 5757 5762 5768 5773 5775 5777 5783 5789 5792 5800 5804 5811 5812 5816 5820 5826 5832 5835 5837 5843 5845 5846 5849 5852 5854 5856 5858 5861 5864 5865 5866 5867 5867 5867 5866 5866 5865
5680 5689 5702 5710 5718 5729 5736 5745 5752 5757 5759 5764 5769 5775 5779 5783 5788 5794 5798 5803 5806 5810 5814 5821 5825 5830 5828 5836 5838 5841 5844 5847 5849 5852 5853 5856 5857 5859 5860 5860 5860 5860 5859 5857
5673 5682 5691 5701 5707 5713 5727 5738 5742 5744 5748 5755 5753 5758 5763 5766 5770 5776 5787 5793 5795 5798 5803 5806 5810 5816 5821 5822 5828 5832 5835 5838 5841 5844 5846 5847 5849 5851 5852 5853 5853 5852 5851 5849
5656 5667 5675 5688 5697 5708 5720 5723 5728 5734 5742 5740 5744 5749 5753 5758 5763 5766 5768 5771 5779 5786 5790 5795 5798 5802 5804 5809 5816 5822 5826 5829 5834 5835 5837 5839 5840 5842 5843 5844 5844 5841 5839 5839
5649 5658 5669 5684 5693 5702 5708 5709 5716 5722 5724 5730 5736 5740 5745 5748 5751 5755 5762 5765 5764 5768 5775 5780 5784 5789 5793 5797 5805 5812 5817 5821 5824 5826 5829 5831 5832 5833 5835 5835 5831 5829 5828 5830
5640 5653 5665 5678 5686 5685 5694 5694 5701 5712 5715 5724 5729 5731 5735 5737 5740 5743 5743 5747 5749 5755 5760 5764 5768 5776 5784 5786 5795 5801 5806 5811 5815 5818 5820 5821 5823 5825 5826 5823 5820 5817 5819 5818
5635 5649 5655 5669 5676 5676 5678 5687 5696 5702 5708 5712 5716 5720 5724 5727 5727 5728 5731 5734 5737 5744 5748 5753 5757 5764 5770 5777 5784 5790 5796 5801 5804 5808 5811 5813 5815 5815 5815 5814 5812 5810 5808 5806
5625 5637 5647 5660 5668 5670 5675 5679 5687 5694 5698 5704 5708 5711 5715 5716 5715 5718 5722 5726 5730 5733 5739 5744 5749 5754 5759 5766 5772 5779 5785 5790 5795 5798 5801 5802 5802 5803 5803 5801 5801 5800 5796 5794
5622 5629 5638 5649 5649 5656 5663 5669 5674 5684 5690 5694 5700 5702 5704 5706 5706 5706 5710 5714 5718 5723 5727 5735 5741 5746 5751 5756 5762 5767 5772 5780 5784 5786 5787 5789 5790 5792 5791 5789 5788 5787 5785 5782